Time,TemperatureF,DewpointF,PressureIn,WindDirection,WindDirectionDegrees,WindSpeedMPH,WindSpeedGustMPH,Humidity,HourlyPrecipIn,Conditions,Clouds,dailyrainin,SoftwareType,DateUTC
2013-06-15 00:02:00,64.9,48.9,30.12,ESE,112,4.0,6.0,56,0.00,,,0.00,meteohub,2013-06-15 05:02:00,
2013-06-15 00:07:00,64.8,48.7,30.12,ESE,112,0.0,6.0,56,0.00,,,0.00,meteohub,2013-06-15 05:07:00,
2013-06-15 00:12:00,64.8,48.7,30.12,NE,45,2.0,6.0,56,0.00,,,0.00,meteohub,2013-06-15 05:12:00,
2013-06-15 00:17:00,64.6,49.1,30.12,East,90,2.0,5.0,57,0.00,,,0.00,meteohub,2013-06-15 05:17:00,
2013-06-15 00:22:00,64.6,49.1,30.12,East,90,0.0,5.0,57,0.00,,,0.00,meteohub,2013-06-15 05:22:00,
2013-06-15 00:27:00,64.4,48.9,30.12,ESE,112,0.0,4.0,57,0.00,,,0.00,meteohub,2013-06-15 05:27:00,
2013-06-15 00:32:00,64.4,48.9,30.15,ESE,112,0.0,3.0,57,0.00,,,0.00,meteohub,2013-06-15 05:32:00,
2013-06-15 00:37:00,64.4,49.3,30.15,East,90,0.0,0.0,58,0.00,,,0.00,meteohub,2013-06-15 05:37:00,
2013-06-15 00:42:00,64.2,49.1,30.15,ESE,112,0.0,0.0,58,0.00,,,0.00,meteohub,2013-06-15 05:42:00,
2013-06-15 00:47:00,64.2,49.6,30.18,East,90,0.0,0.0,59,0.00,,,0.00,meteohub,2013-06-15 05:47:00,
2013-06-15 00:52:00,64.2,49.6,30.18,East,90,0.0,0.0,59,0.00,,,0.00,meteohub,2013-06-15 05:52:00,
2013-06-15 00:57:00,64.0,49.5,30.18,East,90,0.0,3.0,59,0.00,,,0.00,meteohub,2013-06-15 05:57:00,
2013-06-15 01:02:00,63.9,49.3,30.18,East,90,0.0,4.0,59,0.00,,,0.00,meteohub,2013-06-15 06:02:00,
2013-06-15 01:07:00,63.9,49.3,30.18,East,90,0.0,4.0,59,0.00,,,0.00,meteohub,2013-06-15 06:07:00,
2013-06-15 01:12:00,63.9,49.3,30.18,ESE,112,2.0,4.0,59,0.00,,,0.00,meteohub,2013-06-15 06:12:00,
2013-06-15 01:17:00,63.7,49.6,30.18,ESE,112,0.0,4.0,60,0.00,,,0.00,meteohub,2013-06-15 06:17:00,
2013-06-15 01:22:00,63.7,49.6,30.18,East,90,0.0,4.0,60,0.00,,,0.00,meteohub,2013-06-15 06:22:00,
2013-06-15 01:27:00,63.5,49.5,30.18,ESE,112,2.0,4.0,60,0.00,,,0.00,meteohub,2013-06-15 06:27:00,
2013-06-15 01:32:00,63.5,49.8,30.18,ESE,112,0.0,3.0,61,0.00,,,0.00,meteohub,2013-06-15 06:32:00,
2013-06-15 01:37:00,63.3,49.3,30.18,ESE,112,2.0,2.0,60,0.00,,,0.00,meteohub,2013-06-15 06:37:00,
2013-06-15 01:42:00,63.3,49.6,30.18,ESE,112,0.0,2.0,61,0.00,,,0.00,meteohub,2013-06-15 06:42:00,
2013-06-15 01:47:00,63.1,49.5,30.15,ESE,112,0.0,2.0,61,0.00,,,0.00,meteohub,2013-06-15 06:47:00,
2013-06-15 01:52:00,63.1,49.5,30.15,East,90,2.0,2.0,61,0.00,,,0.00,meteohub,2013-06-15 06:52:00,
2013-06-15 01:57:00,63.0,49.3,30.15,East,90,0.0,4.0,61,0.00,,,0.00,meteohub,2013-06-15 06:57:00,
2013-06-15 02:02:00,63.0,49.3,30.12,ESE,112,0.0,4.0,61,0.00,,,0.00,meteohub,2013-06-15 07:02:00,
2013-06-15 02:07:00,63.0,49.3,30.12,SE,135,0.0,4.0,61,0.00,,,0.00,meteohub,2013-06-15 07:07:00,
2013-06-15 02:12:00,62.8,49.1,30.12,ESE,112,4.0,5.0,61,0.00,,,0.00,meteohub,2013-06-15 07:12:00,
2013-06-15 02:17:00,62.6,48.9,30.12,ESE,112,0.0,5.0,61,0.00,,,0.00,meteohub,2013-06-15 07:17:00,
2013-06-15 02:22:00,62.6,49.5,30.12,ESE,112,0.0,5.0,62,0.00,,,0.00,meteohub,2013-06-15 07:22:00,
2013-06-15 02:27:00,62.4,49.3,30.12,ESE,112,0.0,4.0,62,0.00,,,0.00,meteohub,2013-06-15 07:27:00,
2013-06-15 02:32:00,62.4,49.3,30.15,ESE,112,0.0,2.0,62,0.00,,,0.00,meteohub,2013-06-15 07:32:00,
2013-06-15 02:37:00,62.4,49.6,30.15,East,90,0.0,2.0,63,0.00,,,0.00,meteohub,2013-06-15 07:37:00,
2013-06-15 02:42:00,62.4,49.6,30.15,ESE,112,0.0,2.0,63,0.00,,,0.00,meteohub,2013-06-15 07:42:00,
2013-06-15 02:47:00,62.4,50.2,30.15,ESE,112,0.0,2.0,64,0.00,,,0.00,meteohub,2013-06-15 07:47:00,
2013-06-15 02:52:00,62.2,50.0,30.15,ESE,112,0.0,0.0,64,0.00,,,0.00,meteohub,2013-06-15 07:52:00,
2013-06-15 02:57:00,62.4,50.2,30.15,ESE,112,0.0,0.0,64,0.00,,,0.00,meteohub,2013-06-15 07:57:00,
2013-06-15 03:02:00,62.4,50.2,30.18,ESE,112,0.0,0.0,64,0.00,,,0.00,meteohub,2013-06-15 08:02:00,
2013-06-15 03:07:00,62.6,50.2,30.18,ESE,112,0.0,0.0,64,0.00,,,0.00,meteohub,2013-06-15 08:07:00,
2013-06-15 03:12:00,62.6,49.8,30.18,ESE,112,0.0,0.0,63,0.00,,,0.00,meteohub,2013-06-15 08:12:00,
2013-06-15 03:17:00,62.8,50.4,30.18,SE,135,0.0,0.0,64,0.00,,,0.00,meteohub,2013-06-15 08:17:00,
2013-06-15 03:22:00,62.8,50.4,30.18,ESE,112,0.0,0.0,64,0.00,,,0.00,meteohub,2013-06-15 08:22:00,
2013-06-15 03:27:00,62.8,50.9,30.18,ESE,112,0.0,0.0,65,0.00,,,0.00,meteohub,2013-06-15 08:27:00,
2013-06-15 03:32:00,62.8,50.9,30.18,ESE,112,0.0,0.0,65,0.00,,,0.00,meteohub,2013-06-15 08:32:00,
2013-06-15 03:37:00,62.8,50.9,30.18,ESE,112,0.0,0.0,65,0.00,,,0.00,meteohub,2013-06-15 08:37:00,
2013-06-15 03:42:00,62.8,51.3,30.18,ESE,112,0.0,0.0,66,0.00,,,0.00,meteohub,2013-06-15 08:42:00,
2013-06-15 03:47:00,62.8,51.3,30.18,ESE,112,0.0,0.0,66,0.00,,,0.00,meteohub,2013-06-15 08:47:00,
2013-06-15 03:52:00,62.8,51.3,30.18,ESE,112,0.0,0.0,66,0.00,,,0.00,meteohub,2013-06-15 08:52:00,
2013-06-15 03:57:00,62.8,51.3,30.18,NE,45,0.0,0.0,66,0.00,,,0.00,meteohub,2013-06-15 08:57:00,
2013-06-15 04:02:00,62.8,51.3,30.18,ENE,68,0.0,0.0,66,0.00,,,0.00,meteohub,2013-06-15 09:02:00,
2013-06-15 04:07:00,62.8,51.3,30.18,East,90,0.0,0.0,66,0.00,,,0.00,meteohub,2013-06-15 09:07:00,
2013-06-15 04:12:00,62.8,51.3,30.18,ENE,68,0.0,0.0,66,0.00,,,0.00,meteohub,2013-06-15 09:12:00,
2013-06-15 04:17:00,62.8,51.3,30.18,East,90,0.0,0.0,66,0.00,,,0.00,meteohub,2013-06-15 09:17:00,
2013-06-15 04:22:00,62.6,51.1,30.18,NE,45,0.0,0.0,66,0.00,,,0.00,meteohub,2013-06-15 09:22:00,
2013-06-15 04:27:00,62.6,51.1,30.18,East,90,0.0,0.0,66,0.00,,,0.00,meteohub,2013-06-15 09:27:00,
2013-06-15 04:32:00,62.6,51.1,30.15,East,90,0.0,0.0,66,0.00,,,0.00,meteohub,2013-06-15 09:32:00,
2013-06-15 04:37:00,62.8,51.3,30.15,ESE,112,0.0,6.0,66,0.00,,,0.00,meteohub,2013-06-15 09:37:00,
2013-06-15 04:42:00,62.8,51.3,30.15,SE,135,0.0,6.0,66,0.00,,,0.00,meteohub,2013-06-15 09:42:00,
2013-06-15 04:47:00,62.8,51.3,30.18,ESE,112,0.0,3.0,66,0.00,,,0.00,meteohub,2013-06-15 09:47:00,
2013-06-15 04:52:00,62.8,51.3,30.18,East,90,2.0,4.0,66,0.00,,,0.00,meteohub,2013-06-15 09:52:00,
2013-06-15 04:57:00,62.8,51.3,30.18,ESE,112,0.0,4.0,66,0.00,,,0.00,meteohub,2013-06-15 09:57:00,
2013-06-15 05:02:00,62.8,51.3,30.18,East,90,2.0,4.0,66,0.00,,,0.00,meteohub,2013-06-15 10:02:00,
2013-06-15 05:07:00,63.0,51.8,30.18,East,90,0.0,4.0,67,0.00,,,0.00,meteohub,2013-06-15 10:07:00,
2013-06-15 05:12:00,63.0,51.4,30.18,East,90,2.0,6.0,66,0.00,,,0.00,meteohub,2013-06-15 10:12:00,
2013-06-15 05:17:00,63.0,51.4,30.18,ESE,112,0.0,6.0,66,0.00,,,0.00,meteohub,2013-06-15 10:17:00,
2013-06-15 05:22:00,63.0,51.4,30.18,East,90,0.0,6.0,66,0.00,,,0.00,meteohub,2013-06-15 10:22:00,
2013-06-15 05:27:00,62.8,51.6,30.18,East,90,0.0,4.0,67,0.00,,,0.00,meteohub,2013-06-15 10:27:00,
2013-06-15 05:32:00,62.8,51.6,30.18,ESE,112,3.0,4.0,67,0.00,,,0.00,meteohub,2013-06-15 10:32:00,
2013-06-15 05:37:00,62.8,51.6,30.18,ESE,112,0.0,4.0,67,0.00,,,0.00,meteohub,2013-06-15 10:37:00,
2013-06-15 05:42:00,62.8,52.2,30.18,ESE,112,0.0,4.0,68,0.00,,,0.00,meteohub,2013-06-15 10:42:00,
2013-06-15 05:47:00,62.8,52.2,30.18,ESE,112,0.0,4.0,68,0.00,,,0.00,meteohub,2013-06-15 10:47:00,
2013-06-15 05:52:00,62.8,52.2,30.18,ESE,112,0.0,3.0,68,0.00,,,0.00,meteohub,2013-06-15 10:52:00,
2013-06-15 05:57:00,62.8,52.2,30.18,East,90,0.0,3.0,68,0.00,,,0.00,meteohub,2013-06-15 10:57:00,
2013-06-15 06:02:00,62.8,52.5,30.18,ESE,112,0.0,2.0,69,0.00,,,0.00,meteohub,2013-06-15 11:02:00,
2013-06-15 06:07:00,62.6,52.7,30.18,East,90,3.0,3.0,70,0.00,,,0.00,meteohub,2013-06-15 11:07:00,
2013-06-15 06:12:00,62.6,52.7,30.18,ESE,112,0.0,3.0,70,0.00,,,0.00,meteohub,2013-06-15 11:12:00,
2013-06-15 06:17:00,62.4,52.9,30.15,East,90,2.0,3.0,71,0.00,,,0.00,meteohub,2013-06-15 11:17:00,
2013-06-15 06:22:00,62.4,52.9,30.15,East,90,0.0,3.0,71,0.00,,,0.00,meteohub,2013-06-15 11:22:00,
2013-06-15 06:27:00,62.4,53.2,30.15,ESE,112,0.0,3.0,72,0.00,,,0.00,meteohub,2013-06-15 11:27:00,
2013-06-15 06:32:00,62.2,53.1,30.12,ENE,68,0.0,3.0,72,0.00,,,0.00,meteohub,2013-06-15 11:32:00,
2013-06-15 06:37:00,62.2,53.4,30.12,North,0,0.0,4.0,73,0.00,,,0.00,meteohub,2013-06-15 11:37:00,
2013-06-15 06:42:00,62.1,53.2,30.12,NNW,338,0.0,4.0,73,0.00,,,0.00,meteohub,2013-06-15 11:42:00,
2013-06-15 06:47:00,62.1,53.2,30.12,NE,45,0.0,3.0,73,0.00,,,0.00,meteohub,2013-06-15 11:47:00,
2013-06-15 06:52:00,62.1,53.6,30.12,ESE,112,0.0,2.0,74,0.00,,,0.00,meteohub,2013-06-15 11:52:00,
2013-06-15 06:57:00,61.9,53.6,30.12,ESE,112,0.0,2.0,74,0.00,,,0.00,meteohub,2013-06-15 11:57:00,
2013-06-15 07:02:00,61.9,54.0,30.12,ESE,112,0.0,2.0,75,0.00,,,0.00,meteohub,2013-06-15 12:02:00,
2013-06-15 07:07:00,61.9,54.3,30.12,East,90,0.0,2.0,76,0.00,,,0.00,meteohub,2013-06-15 12:07:00,
2013-06-15 07:12:00,61.9,54.7,30.12,East,90,3.0,3.0,77,0.00,,,0.00,meteohub,2013-06-15 12:12:00,
2013-06-15 07:17:00,61.9,55.0,30.12,East,90,0.0,3.0,78,0.00,,,0.00,meteohub,2013-06-15 12:17:00,
2013-06-15 07:22:00,61.9,55.0,30.12,East,90,0.0,3.0,78,0.00,,,0.00,meteohub,2013-06-15 12:22:00,
2013-06-15 07:27:00,61.9,55.0,30.12,East,90,2.0,3.0,78,0.00,,,0.00,meteohub,2013-06-15 12:27:00,
2013-06-15 07:32:00,61.7,55.0,30.12,East,90,2.0,4.0,79,0.00,,,0.00,meteohub,2013-06-15 12:32:00,
2013-06-15 07:37:00,61.9,55.6,30.12,East,90,2.0,4.0,80,0.00,,,0.00,meteohub,2013-06-15 12:37:00,
2013-06-15 07:42:00,61.9,55.6,30.12,SE,135,0.0,4.0,80,0.00,,,0.00,meteohub,2013-06-15 12:42:00,
2013-06-15 07:47:00,62.1,55.8,30.12,ESE,112,0.0,4.0,80,0.00,,,0.00,meteohub,2013-06-15 12:47:00,
2013-06-15 07:52:00,62.1,56.1,30.12,ESE,112,0.0,2.0,81,0.00,,,0.00,meteohub,2013-06-15 12:52:00,
2013-06-15 07:57:00,62.1,56.1,30.12,SE,135,0.0,3.0,81,0.00,,,0.00,meteohub,2013-06-15 12:57:00,
2013-06-15 08:02:00,62.2,56.7,30.12,ESE,112,0.0,3.0,82,0.00,,,0.00,meteohub,2013-06-15 13:02:00,
2013-06-15 08:07:00,62.2,56.7,30.12,East,90,0.0,3.0,82,0.00,,,0.00,meteohub,2013-06-15 13:07:00,
2013-06-15 08:13:00,62.4,56.8,30.12,ESE,112,2.0,2.0,82,0.00,,,0.00,meteohub,2013-06-15 13:13:00,
2013-06-15 08:18:00,62.4,56.8,30.12,SE,135,0.0,2.0,82,0.00,,,0.00,meteohub,2013-06-15 13:18:00,
2013-06-15 08:23:00,62.4,56.8,30.12,SE,135,0.0,2.0,82,0.00,,,0.00,meteohub,2013-06-15 13:23:00,
2013-06-15 08:28:00,62.6,57.0,30.12,ESE,112,0.0,2.0,82,0.00,,,0.00,meteohub,2013-06-15 13:28:00,
2013-06-15 08:33:00,62.6,57.0,30.12,ESE,112,0.0,2.0,82,0.00,,,0.00,meteohub,2013-06-15 13:33:00,
2013-06-15 08:38:00,62.8,57.6,30.12,ESE,112,0.0,0.0,83,0.04,,,0.04,meteohub,2013-06-15 13:38:00,
2013-06-15 08:43:00,63.0,57.7,30.12,SSW,202,0.0,0.0,83,0.04,,,0.04,meteohub,2013-06-15 13:43:00,
2013-06-15 08:48:00,63.1,58.3,30.12,ESE,112,0.0,0.0,84,0.04,,,0.04,meteohub,2013-06-15 13:48:00,
2013-06-15 08:53:00,63.1,58.3,30.12,South,180,0.0,0.0,84,0.04,,,0.04,meteohub,2013-06-15 13:53:00,
2013-06-15 08:58:00,63.3,58.5,30.12,SSW,202,0.0,0.0,84,0.04,,,0.04,meteohub,2013-06-15 13:58:00,
2013-06-15 09:03:00,63.5,59.0,30.12,South,180,0.0,0.0,85,0.04,,,0.04,meteohub,2013-06-15 14:03:00,
2013-06-15 09:08:00,63.5,59.0,30.12,SSW,202,0.0,2.0,85,0.04,,,0.04,meteohub,2013-06-15 14:08:00,
2013-06-15 09:13:00,63.7,59.0,30.12,SSW,202,4.0,4.0,85,0.04,,,0.04,meteohub,2013-06-15 14:13:00,
2013-06-15 09:18:00,63.9,59.2,30.15,SSW,202,2.0,4.0,85,0.08,,,0.08,meteohub,2013-06-15 14:18:00,
2013-06-15 09:23:00,63.9,59.2,30.15,SSE,158,0.0,4.0,85,0.08,,,0.08,meteohub,2013-06-15 14:23:00,
2013-06-15 09:28:00,64.0,59.7,30.15,South,180,0.0,4.0,86,0.08,,,0.08,meteohub,2013-06-15 14:28:00,
2013-06-15 09:33:00,64.2,59.9,30.15,SSE,158,0.0,4.0,86,0.04,,,0.08,meteohub,2013-06-15 14:33:00,
2013-06-15 09:38:00,64.4,60.1,30.15,South,180,0.0,3.0,86,0.04,,,0.08,meteohub,2013-06-15 14:38:00,
2013-06-15 09:43:00,64.8,60.4,30.15,SW,225,2.0,4.0,86,0.04,,,0.08,meteohub,2013-06-15 14:43:00,
2013-06-15 09:48:00,64.8,60.4,30.12,SW,225,0.0,5.0,86,0.04,,,0.08,meteohub,2013-06-15 14:48:00,
2013-06-15 09:53:00,64.9,61.0,30.12,South,180,0.0,5.0,87,0.04,,,0.08,meteohub,2013-06-15 14:53:00,
2013-06-15 09:58:00,65.1,61.2,30.12,SSW,202,0.0,5.0,87,0.04,,,0.08,meteohub,2013-06-15 14:58:00,
2013-06-15 10:03:00,65.7,61.7,30.12,SSE,158,0.0,3.0,87,0.04,,,0.08,meteohub,2013-06-15 15:03:00,
2013-06-15 10:08:00,65.8,61.9,30.12,SSW,202,0.0,3.0,87,0.04,,,0.08,meteohub,2013-06-15 15:08:00,
2013-06-15 10:13:00,66.4,62.4,30.12,SSE,158,2.0,2.0,87,0.04,,,0.08,meteohub,2013-06-15 15:13:00,
2013-06-15 10:18:00,66.9,63.3,30.12,East,90,2.0,4.0,88,0.00,,,0.08,meteohub,2013-06-15 15:18:00,
2013-06-15 10:23:00,67.3,63.3,30.12,SE,135,0.0,4.0,87,0.00,,,0.08,meteohub,2013-06-15 15:23:00,
2013-06-15 10:28:00,67.5,63.5,30.12,ESE,112,3.0,3.0,87,0.00,,,0.08,meteohub,2013-06-15 15:28:00,
2013-06-15 10:33:00,67.5,63.5,30.09,SE,135,0.0,3.0,87,0.00,,,0.08,meteohub,2013-06-15 15:33:00,
2013-06-15 10:38:00,67.6,63.3,30.09,ESE,112,3.0,4.0,86,0.00,,,0.08,meteohub,2013-06-15 15:38:00,
2013-06-15 10:43:00,67.8,63.5,30.09,East,90,4.0,7.0,86,0.00,,,0.08,meteohub,2013-06-15 15:43:00,
2013-06-15 10:48:00,67.8,63.5,30.12,ESE,112,2.0,7.0,86,0.00,,,0.08,meteohub,2013-06-15 15:48:00,
2013-06-15 10:53:00,68.0,63.7,30.12,SE,135,2.0,7.0,86,0.00,,,0.08,meteohub,2013-06-15 15:53:00,
2013-06-15 10:58:00,68.2,63.9,30.12,South,180,0.0,4.0,86,0.00,,,0.08,meteohub,2013-06-15 15:58:00,
2013-06-15 11:03:00,68.4,64.0,30.12,SSE,158,0.0,4.0,86,0.00,,,0.08,meteohub,2013-06-15 16:03:00,
2013-06-15 11:08:00,68.5,64.2,30.12,WSW,248,0.0,3.0,86,0.00,,,0.08,meteohub,2013-06-15 16:08:00,
2013-06-15 11:13:00,68.7,64.4,30.12,SSE,158,0.0,3.0,86,0.00,,,0.08,meteohub,2013-06-15 16:13:00,
2013-06-15 11:18:00,69.1,64.8,30.12,SSW,202,3.0,4.0,86,0.00,,,0.08,meteohub,2013-06-15 16:18:00,
2013-06-15 11:23:00,69.4,65.5,30.12,West,270,2.0,4.0,87,0.00,,,0.08,meteohub,2013-06-15 16:23:00,
2013-06-15 11:28:00,70.0,65.7,30.12,NE,45,2.0,4.0,86,0.00,,,0.08,meteohub,2013-06-15 16:28:00,
2013-06-15 11:33:00,70.5,66.2,30.12,South,180,0.0,4.0,86,0.00,,,0.08,meteohub,2013-06-15 16:33:00,
2013-06-15 11:38:00,71.2,67.1,30.12,SSW,202,4.0,7.0,87,0.00,,,0.08,meteohub,2013-06-15 16:38:00,
2013-06-15 11:44:00,71.6,67.1,30.12,East,90,2.0,7.0,86,0.00,,,0.08,meteohub,2013-06-15 16:44:00,
2013-06-15 11:49:00,72.1,67.6,30.09,SSE,158,2.0,6.0,86,0.00,,,0.08,meteohub,2013-06-15 16:49:00,
2013-06-15 11:54:00,72.5,67.8,30.09,SE,135,2.0,4.0,85,0.00,,,0.08,meteohub,2013-06-15 16:54:00,
2013-06-15 11:59:00,73.0,68.2,30.09,West,270,0.0,6.0,85,0.00,,,0.08,meteohub,2013-06-15 16:59:00,
2013-06-15 12:04:00,73.6,68.2,30.12,South,180,0.0,8.0,83,0.00,,,0.08,meteohub,2013-06-15 17:04:00,
2013-06-15 12:09:00,73.9,68.2,30.12,WSW,248,0.0,9.0,82,0.00,,,0.08,meteohub,2013-06-15 17:09:00,
2013-06-15 12:14:00,74.3,68.0,30.12,West,270,2.0,9.0,81,0.00,,,0.08,meteohub,2013-06-15 17:14:00,
2013-06-15 12:19:00,74.3,68.0,30.12,SSE,158,3.0,9.0,81,0.00,,,0.08,meteohub,2013-06-15 17:19:00,
2013-06-15 12:24:00,74.3,67.3,30.12,SSE,158,5.0,5.0,79,0.00,,,0.08,meteohub,2013-06-15 17:24:00,
2013-06-15 12:29:00,74.3,67.3,30.09,SSW,202,2.0,6.0,79,0.00,,,0.08,meteohub,2013-06-15 17:29:00,
2013-06-15 12:34:00,74.5,67.5,30.09,SE,135,2.0,6.0,79,0.00,,,0.08,meteohub,2013-06-15 17:34:00,
2013-06-15 12:39:00,74.7,67.6,30.09,SW,225,3.0,6.0,79,0.00,,,0.08,meteohub,2013-06-15 17:39:00,
2013-06-15 12:44:00,75.0,68.0,30.09,SE,135,0.0,6.0,79,0.00,,,0.08,meteohub,2013-06-15 17:44:00,
2013-06-15 12:49:00,75.4,68.0,30.09,SSW,202,0.0,6.0,78,0.00,,,0.08,meteohub,2013-06-15 17:49:00,
2013-06-15 12:54:00,75.7,67.6,30.09,SSW,202,3.0,10.0,76,0.00,,,0.08,meteohub,2013-06-15 17:54:00,
2013-06-15 12:59:00,75.7,67.3,30.12,SW,225,2.0,10.0,75,0.00,,,0.08,meteohub,2013-06-15 17:59:00,
2013-06-15 13:04:00,75.6,66.4,30.12,SE,135,4.0,6.0,73,0.00,,,0.08,meteohub,2013-06-15 18:04:00,
2013-06-15 13:09:00,75.6,66.4,30.12,SW,225,5.0,9.0,73,0.00,,,0.08,meteohub,2013-06-15 18:09:00,
2013-06-15 13:14:00,75.9,66.6,30.12,SSW,202,3.0,9.0,73,0.00,,,0.08,meteohub,2013-06-15 18:14:00,
2013-06-15 13:19:00,76.1,66.4,30.12,SSE,158,0.0,9.0,72,0.00,,,0.08,meteohub,2013-06-15 18:19:00,
2013-06-15 13:24:00,76.5,67.1,30.12,South,180,6.0,7.0,73,0.00,,,0.08,meteohub,2013-06-15 18:24:00,
2013-06-15 13:29:00,76.8,67.5,30.12,NE,45,2.0,8.0,73,0.00,,,0.08,meteohub,2013-06-15 18:29:00,
2013-06-15 13:34:00,77.0,66.9,30.12,ESE,112,6.0,11.0,71,0.00,,,0.08,meteohub,2013-06-15 18:34:00,
2013-06-15 13:39:00,76.8,66.2,30.12,West,270,0.0,11.0,70,0.00,,,0.08,meteohub,2013-06-15 18:39:00,
2013-06-15 13:44:00,76.8,66.2,30.12,East,90,3.0,12.0,70,0.00,,,0.08,meteohub,2013-06-15 18:44:00,
2013-06-15 13:49:00,76.5,65.5,30.12,West,270,6.0,12.0,69,0.00,,,0.08,meteohub,2013-06-15 18:49:00,
2013-06-15 13:54:00,76.5,65.5,30.12,West,270,3.0,9.0,69,0.00,,,0.08,meteohub,2013-06-15 18:54:00,
2013-06-15 13:59:00,76.6,65.7,30.12,WSW,248,8.0,12.0,69,0.00,,,0.08,meteohub,2013-06-15 18:59:00,
2013-06-15 14:04:00,77.0,66.4,30.12,West,270,6.0,12.0,70,0.00,,,0.08,meteohub,2013-06-15 19:04:00,
2013-06-15 14:09:00,77.2,66.6,30.12,East,90,2.0,11.0,70,0.00,,,0.08,meteohub,2013-06-15 19:09:00,
2013-06-15 14:14:00,77.2,66.6,30.12,SSE,158,3.0,8.0,70,0.00,,,0.08,meteohub,2013-06-15 19:14:00,
2013-06-15 14:19:00,77.5,66.2,30.12,West,270,3.0,7.0,68,0.00,,,0.08,meteohub,2013-06-15 19:19:00,
2013-06-15 14:24:00,77.7,66.4,30.12,North,0,0.0,11.0,68,0.00,,,0.08,meteohub,2013-06-15 19:24:00,
2013-06-15 14:29:00,78.3,67.3,30.12,West,270,3.0,11.0,69,0.00,,,0.08,meteohub,2013-06-15 19:29:00,
2013-06-15 14:34:00,78.4,66.9,30.12,WSW,248,6.0,11.0,68,0.00,,,0.08,meteohub,2013-06-15 19:34:00,
2013-06-15 14:39:00,78.4,66.6,30.12,WSW,248,0.0,10.0,67,0.00,,,0.08,meteohub,2013-06-15 19:39:00,
2013-06-15 14:44:00,78.4,66.6,30.12,SW,225,4.0,10.0,67,0.00,,,0.08,meteohub,2013-06-15 19:44:00,
2013-06-15 14:49:00,78.4,66.2,30.12,WSW,248,6.0,8.0,66,0.00,,,0.08,meteohub,2013-06-15 19:49:00,
2013-06-15 14:54:00,78.3,66.0,30.12,WSW,248,5.0,6.0,66,0.00,,,0.08,meteohub,2013-06-15 19:54:00,
2013-06-15 14:59:00,78.4,65.7,30.09,NW,315,5.0,8.0,65,0.00,,,0.08,meteohub,2013-06-15 19:59:00,
2013-06-15 15:04:00,78.3,65.5,30.09,South,180,3.0,11.0,65,0.00,,,0.08,meteohub,2013-06-15 20:04:00,
2013-06-15 15:09:00,78.4,66.2,30.09,SW,225,0.0,11.0,66,0.00,,,0.08,meteohub,2013-06-15 20:09:00,
2013-06-15 15:14:00,78.6,66.7,30.09,West,270,5.0,11.0,67,0.00,,,0.08,meteohub,2013-06-15 20:14:00,
2013-06-15 15:19:00,78.4,65.7,30.06,SW,225,2.0,6.0,65,0.00,,,0.08,meteohub,2013-06-15 20:19:00,
2013-06-15 15:24:00,78.4,66.2,30.06,West,270,4.0,6.0,66,0.00,,,0.08,meteohub,2013-06-15 20:24:00,
2013-06-15 15:30:00,78.6,66.4,30.06,WSW,248,0.0,5.0,66,0.00,,,0.08,meteohub,2013-06-15 20:30:00,
2013-06-15 15:35:00,78.8,66.0,30.06,WSW,248,0.0,7.0,65,0.00,,,0.08,meteohub,2013-06-15 20:35:00,
2013-06-15 15:40:00,79.3,66.9,30.06,West,270,0.0,7.0,66,0.00,,,0.08,meteohub,2013-06-15 20:40:00,
2013-06-15 15:45:00,79.9,67.5,30.06,WSW,248,0.0,7.0,66,0.00,,,0.08,meteohub,2013-06-15 20:45:00,
2013-06-15 15:50:00,80.4,68.0,30.06,South,180,3.0,4.0,66,0.00,,,0.08,meteohub,2013-06-15 20:50:00,
2013-06-15 15:55:00,80.8,67.5,30.06,WSW,248,3.0,4.0,64,0.00,,,0.08,meteohub,2013-06-15 20:55:00,
2013-06-15 16:00:00,80.6,67.3,30.06,West,270,0.0,5.0,64,0.00,,,0.08,meteohub,2013-06-15 21:00:00,
2013-06-15 16:05:00,80.6,67.3,30.06,West,270,2.0,5.0,64,0.00,,,0.08,meteohub,2013-06-15 21:05:00,
2013-06-15 16:10:00,80.6,66.9,30.06,West,270,6.0,6.0,63,0.00,,,0.08,meteohub,2013-06-15 21:10:00,
2013-06-15 16:15:00,80.8,66.6,30.06,West,270,2.0,6.0,62,0.00,,,0.08,meteohub,2013-06-15 21:15:00,
2013-06-15 16:20:00,81.1,67.3,30.06,South,180,0.0,8.0,63,0.00,,,0.08,meteohub,2013-06-15 21:20:00,
2013-06-15 16:25:00,81.3,67.5,30.06,WSW,248,4.0,8.0,63,0.00,,,0.08,meteohub,2013-06-15 21:25:00,
2013-06-15 16:30:00,81.9,67.6,30.06,SSE,158,0.0,6.0,62,0.00,,,0.08,meteohub,2013-06-15 21:30:00,
2013-06-15 16:35:00,82.0,66.7,30.06,SW,225,6.0,6.0,60,0.00,,,0.08,meteohub,2013-06-15 21:35:00,
2013-06-15 16:40:00,81.7,65.5,30.06,SW,225,6.0,6.0,58,0.00,,,0.08,meteohub,2013-06-15 21:40:00,
2013-06-15 16:45:00,81.7,66.0,30.06,South,180,2.0,8.0,59,0.00,,,0.08,meteohub,2013-06-15 21:45:00,
2013-06-15 16:50:00,81.9,66.6,30.06,West,270,0.0,8.0,60,0.00,,,0.08,meteohub,2013-06-15 21:50:00,
2013-06-15 16:55:00,81.9,66.2,30.06,SSW,202,3.0,8.0,59,0.00,,,0.08,meteohub,2013-06-15 21:55:00,
2013-06-15 17:00:00,81.9,66.2,30.03,SSE,158,0.0,6.0,59,0.00,,,0.08,meteohub,2013-06-15 22:00:00,
2013-06-15 17:05:00,81.7,66.0,30.03,West,270,5.0,6.0,59,0.00,,,0.08,meteohub,2013-06-15 22:05:00,
2013-06-15 17:10:00,81.7,66.0,30.03,South,180,3.0,5.0,59,0.00,,,0.08,meteohub,2013-06-15 22:10:00,
2013-06-15 17:15:00,81.5,65.8,30.03,SSW,202,5.0,5.0,59,0.00,,,0.08,meteohub,2013-06-15 22:15:00,
2013-06-15 17:20:00,81.3,66.0,30.03,West,270,0.0,5.0,60,0.00,,,0.08,meteohub,2013-06-15 22:20:00,
2013-06-15 17:25:00,81.0,65.8,30.03,West,270,0.0,5.0,60,0.00,,,0.08,meteohub,2013-06-15 22:25:00,
2013-06-15 17:30:00,80.6,65.8,30.03,West,270,0.0,5.0,61,0.00,,,0.08,meteohub,2013-06-15 22:30:00,
2013-06-15 17:35:00,80.1,65.8,30.03,West,270,0.0,5.0,62,0.00,,,0.08,meteohub,2013-06-15 22:35:00,
2013-06-15 17:40:00,79.7,65.5,30.03,SW,225,0.0,5.0,62,0.00,,,0.08,meteohub,2013-06-15 22:40:00,
2013-06-15 17:45:00,79.2,65.5,30.03,WSW,248,2.0,5.0,63,0.00,,,0.08,meteohub,2013-06-15 22:45:00,
2013-06-15 17:50:00,79.0,65.3,30.03,East,90,2.0,6.0,63,0.00,,,0.08,meteohub,2013-06-15 22:50:00,
2013-06-15 17:55:00,78.8,64.8,30.03,South,180,4.0,11.0,62,0.00,,,0.08,meteohub,2013-06-15 22:55:00,
2013-06-15 18:00:00,78.4,64.4,30.00,WSW,248,6.0,11.0,62,0.00,,,0.08,meteohub,2013-06-15 23:00:00,
2013-06-15 18:05:00,78.8,64.2,30.00,SSW,202,6.0,11.0,61,0.00,,,0.08,meteohub,2013-06-15 23:05:00,
2013-06-15 18:10:00,79.0,64.4,30.00,SSW,202,4.0,10.0,61,0.00,,,0.08,meteohub,2013-06-15 23:10:00,
2013-06-15 18:15:00,79.0,63.5,30.00,SSE,158,2.0,10.0,59,0.00,,,0.08,meteohub,2013-06-15 23:15:00,
2013-06-15 18:20:00,78.6,63.5,30.00,WSW,248,3.0,10.0,60,0.00,,,0.08,meteohub,2013-06-15 23:20:00,
2013-06-15 18:25:00,78.4,63.3,30.00,South,180,6.0,9.0,60,0.00,,,0.08,meteohub,2013-06-15 23:25:00,
2013-06-15 18:30:00,78.4,63.3,29.97,SE,135,3.0,8.0,60,0.00,,,0.08,meteohub,2013-06-15 23:30:00,
2013-06-15 18:35:00,78.3,63.3,29.97,SSW,202,2.0,8.0,60,0.00,,,0.08,meteohub,2013-06-15 23:35:00,
2013-06-15 18:40:00,78.1,62.6,29.97,West,270,0.0,8.0,59,0.00,,,0.08,meteohub,2013-06-15 23:40:00,
2013-06-15 18:46:00,77.7,62.8,30.00,SSW,202,0.0,7.0,60,0.00,,,0.08,meteohub,2013-06-15 23:46:00,
2013-06-15 18:51:00,77.5,62.6,30.00,WSW,248,5.0,6.0,60,0.00,,,0.08,meteohub,2013-06-15 23:51:00,
2013-06-15 18:56:00,77.4,62.4,30.00,SW,225,2.0,7.0,60,0.00,,,0.08,meteohub,2013-06-15 23:56:00,
2013-06-15 19:01:00,77.2,62.6,30.00,East,90,2.0,7.0,61,0.00,,,0.08,meteohub,2013-06-16 00:01:00,
2013-06-15 19:06:00,77.0,63.0,30.00,NW,315,0.0,5.0,62,0.00,,,0.08,meteohub,2013-06-16 00:06:00,
2013-06-15 19:11:00,77.0,63.0,30.00,WSW,248,0.0,5.0,62,0.00,,,0.08,meteohub,2013-06-16 00:11:00,
2013-06-15 19:16:00,76.8,63.3,30.00,SSW,202,2.0,5.0,63,0.00,,,0.08,meteohub,2013-06-16 00:16:00,
2013-06-15 19:21:00,76.8,63.3,30.00,WSW,248,0.0,4.0,63,0.00,,,0.08,meteohub,2013-06-16 00:21:00,
2013-06-15 19:26:00,76.6,63.5,30.00,South,180,0.0,6.0,64,0.00,,,0.08,meteohub,2013-06-16 00:26:00,
2013-06-15 19:31:00,76.6,63.5,30.00,SSW,202,2.0,6.0,64,0.00,,,0.08,meteohub,2013-06-16 00:31:00,
2013-06-15 19:36:00,76.5,63.9,30.00,SSW,202,0.0,6.0,65,0.00,,,0.08,meteohub,2013-06-16 00:36:00,
2013-06-15 19:41:00,76.5,63.9,30.00,South,180,4.0,5.0,65,0.00,,,0.08,meteohub,2013-06-16 00:41:00,
2013-06-15 19:46:00,76.1,63.5,30.00,SSE,158,3.0,6.0,65,0.00,,,0.08,meteohub,2013-06-16 00:46:00,
2013-06-15 19:51:00,76.1,63.5,30.00,WSW,248,0.0,6.0,65,0.00,,,0.08,meteohub,2013-06-16 00:51:00,
2013-06-15 19:56:00,75.9,63.7,30.00,SSW,202,3.0,8.0,66,0.00,,,0.08,meteohub,2013-06-16 00:56:00,
2013-06-15 20:01:00,75.7,63.5,30.00,SSE,158,0.0,8.0,66,0.00,,,0.08,meteohub,2013-06-16 01:01:00,
2013-06-15 20:06:00,75.6,63.3,30.00,NW,315,0.0,8.0,66,0.00,,,0.08,meteohub,2013-06-16 01:06:00,
2013-06-15 20:11:00,75.4,63.7,30.00,South,180,4.0,5.0,67,0.00,,,0.08,meteohub,2013-06-16 01:11:00,
2013-06-15 20:16:00,75.2,63.5,30.00,SE,135,5.0,10.0,67,0.00,,,0.08,meteohub,2013-06-16 01:16:00,
2013-06-15 20:21:00,75.0,63.7,30.00,NW,315,5.0,10.0,68,0.00,,,0.08,meteohub,2013-06-16 01:21:00,
2013-06-15 20:26:00,74.8,63.5,30.00,WSW,248,4.0,10.0,68,0.00,,,0.08,meteohub,2013-06-16 01:26:00,
2013-06-15 20:31:00,74.8,64.0,30.03,NE,45,5.0,8.0,69,0.00,,,0.08,meteohub,2013-06-16 01:31:00,
2013-06-15 20:36:00,74.7,63.9,30.03,SW,225,11.0,11.0,69,0.00,,,0.08,meteohub,2013-06-16 01:36:00,
2013-06-15 20:41:00,74.7,64.2,30.03,WSW,248,2.0,11.0,70,0.00,,,0.08,meteohub,2013-06-16 01:41:00,
2013-06-15 20:46:00,74.5,64.4,30.03,North,0,5.0,15.0,71,0.00,,,0.08,meteohub,2013-06-16 01:46:00,
2013-06-15 20:51:00,74.5,64.4,30.03,West,270,2.0,15.0,71,0.00,,,0.08,meteohub,2013-06-16 01:51:00,
2013-06-15 20:56:00,74.5,64.9,30.03,West,270,0.0,15.0,72,0.00,,,0.08,meteohub,2013-06-16 01:56:00,
2013-06-15 21:01:00,74.5,64.9,30.00,SE,135,4.0,6.0,72,0.00,,,0.08,meteohub,2013-06-16 02:01:00,
2013-06-15 21:06:00,74.3,65.1,30.00,South,180,0.0,4.0,73,0.00,,,0.08,meteohub,2013-06-16 02:06:00,
2013-06-15 21:11:00,74.1,64.9,30.00,SW,225,0.0,4.0,73,0.00,,,0.08,meteohub,2013-06-16 02:11:00,
2013-06-15 21:16:00,74.1,65.3,30.03,South,180,0.0,4.0,74,0.00,,,0.08,meteohub,2013-06-16 02:16:00,
2013-06-15 21:21:00,73.9,65.1,30.03,SW,225,2.0,2.0,74,0.00,,,0.08,meteohub,2013-06-16 02:21:00,
2013-06-15 21:26:00,73.8,65.3,30.03,WNW,292,0.0,5.0,75,0.00,,,0.08,meteohub,2013-06-16 02:26:00,
2013-06-15 21:32:00,73.8,65.3,30.03,SSW,202,2.0,5.0,75,0.00,,,0.08,meteohub,2013-06-16 02:32:00,
2013-06-15 21:37:00,73.8,65.7,30.03,SSW,202,0.0,6.0,76,0.00,,,0.08,meteohub,2013-06-16 02:37:00,
2013-06-15 21:42:00,73.6,65.5,30.03,SSW,202,0.0,6.0,76,0.00,,,0.08,meteohub,2013-06-16 02:42:00,
2013-06-15 21:47:00,73.4,65.7,30.03,South,180,2.0,6.0,77,0.00,,,0.08,meteohub,2013-06-16 02:47:00,
2013-06-15 21:52:00,73.4,65.7,30.03,West,270,4.0,4.0,77,0.00,,,0.08,meteohub,2013-06-16 02:52:00,
2013-06-15 21:57:00,73.4,65.7,30.03,SSW,202,5.0,5.0,77,0.00,,,0.08,meteohub,2013-06-16 02:57:00,
2013-06-15 22:02:00,73.4,66.2,30.03,SW,225,0.0,7.0,78,0.00,,,0.08,meteohub,2013-06-16 03:02:00,
2013-06-15 22:07:00,73.4,66.2,30.03,East,90,5.0,7.0,78,0.00,,,0.08,meteohub,2013-06-16 03:07:00,
2013-06-15 22:12:00,73.2,66.4,30.03,SSE,158,2.0,7.0,79,0.00,,,0.08,meteohub,2013-06-16 03:12:00,
2013-06-15 22:17:00,73.2,66.4,30.03,West,270,2.0,5.0,79,0.00,,,0.08,meteohub,2013-06-16 03:17:00,
2013-06-15 22:22:00,73.2,66.7,30.03,SW,225,4.0,5.0,80,0.00,,,0.08,meteohub,2013-06-16 03:22:00,
2013-06-15 22:27:00,73.2,66.7,30.03,South,180,0.0,5.0,80,0.00,,,0.08,meteohub,2013-06-16 03:27:00,
2013-06-15 22:32:00,73.2,66.7,30.03,West,270,0.0,5.0,80,0.00,,,0.08,meteohub,2013-06-16 03:32:00,
2013-06-15 22:37:00,73.0,66.6,30.03,SSW,202,0.0,5.0,80,0.00,,,0.08,meteohub,2013-06-16 03:37:00,
2013-06-15 22:42:00,73.0,66.6,30.03,WSW,248,0.0,4.0,80,0.00,,,0.08,meteohub,2013-06-16 03:42:00,
2013-06-15 22:47:00,73.0,66.9,30.00,WSW,248,7.0,7.0,81,0.00,,,0.08,meteohub,2013-06-16 03:47:00,
2013-06-15 22:52:00,73.0,66.9,30.00,SSW,202,3.0,7.0,81,0.00,,,0.08,meteohub,2013-06-16 03:52:00,
2013-06-15 22:57:00,72.9,66.7,30.00,SSW,202,2.0,7.0,81,0.00,,,0.08,meteohub,2013-06-16 03:57:00,
2013-06-15 23:01:00,72.9,66.7,30.03,East,90,4.0,7.0,81,0.00,,,0.08,meteohub,2013-06-16 04:01:00,
2013-06-15 23:06:00,73.0,67.3,30.03,WSW,248,2.0,6.0,82,0.00,,,0.08,meteohub,2013-06-16 04:06:00,
2013-06-15 23:11:00,73.0,67.3,30.03,ESE,112,2.0,7.0,82,0.00,,,0.08,meteohub,2013-06-16 04:11:00,
2013-06-15 23:16:00,73.0,67.3,30.03,West,270,4.0,7.0,82,0.00,,,0.08,meteohub,2013-06-16 04:16:00,
2013-06-15 23:22:00,73.0,67.6,30.03,SE,135,10.0,10.0,83,0.00,,,0.08,meteohub,2013-06-16 04:22:00,
2013-06-15 23:27:00,73.2,68.2,30.03,SW,225,7.0,10.0,84,0.00,,,0.08,meteohub,2013-06-16 04:27:00,
2013-06-15 23:32:00,73.0,68.0,30.03,SW,225,10.0,13.0,84,0.00,,,0.08,meteohub,2013-06-16 04:32:00,
2013-06-15 23:37:00,73.0,67.6,30.03,West,270,9.0,13.0,83,0.00,,,0.08,meteohub,2013-06-16 04:37:00,
2013-06-15 23:42:00,73.0,67.3,30.03,West,270,5.0,14.0,82,0.00,,,0.08,meteohub,2013-06-16 04:42:00,
2013-06-15 23:47:00,73.0,66.9,30.03,SW,225,11.0,18.0,81,0.00,,,0.08,meteohub,2013-06-16 04:47:00,
2013-06-15 23:52:00,73.0,66.9,30.03,SSW,202,9.0,18.0,81,0.00,,,0.08,meteohub,2013-06-16 04:52:00,
2013-06-15 23:57:00,72.9,65.7,30.03,WNW,292,14.0,18.0,78,0.00,,,0.08,meteohub,2013-06-16 04:57:00,